NOAA 16 DEB, 41135

Orbit data source: Space-Track

NOAA 16 DEB, 41135 is space debris in SSO originally from a launch on Thu, 21 Sep 2000 UTC launched from the Air Force Western Test Range (AFWTR). Debris objects in space refer to the collection of defunct objects orbiting the Earth. Examples of debris include non-operational satellites, rocket bodies, and fragments generated from explosions, collisions, or faulty payload assembly.

Loading next visibility...
Identifier
41135, 2000-055BS
Orbit
SSO
Country
Flag of USUS
Related business
Manufacturer
Unknown
Mission
Spacecraft
Bus & Motor
Unknown
Mass
Unknown
Launch date (UTC)
2000-09-21 (25 years ago)
Launch vehicle
Unknown
Launch site
Air Force Western Test Range (AFWTR)
Object type
Payload
Rocket body
Debris
Shape & HBR
Unknown shape, 0.1 m
Radar Cross Section
Small (<0.1 m²)

Expand to show TLE details & history
Last TLE update: 23 hours ago

TLE from 23 hours ago
0 NOAA 16 DEB
1 41135U 00055BS  25301.56197843  .00099576  00000-0  73882-2 0  9994
2 41135  98.8394 155.5755 0014061 240.3172 119.6649 15.02501724519346
Epoch: 2025-10-28T13:29Z
TLE epoch observation values (Epoch: 2025-10-28T13:29:14.936Z)
Latitude
-0.0001°
Longitude
-83.88441°
Altitude
567.046 km
Speed
7.575 km/s
True Right ascension
10h 22m 18s
True Declination
0° 00' 00"
Sunlit
Object was in daylight at epoch
Visualization orbit readout
Latitude
Unknown
Longitude
Unknown
Altitude
Unknown
Speed
Unknown
Apparent Right ascension
Unknown
Apparent Declination
Unknown
Sunlit
N/A
Visualization observer readout
Local Sidereal Time
07:58:44
Azimuth
Unknown
Elevation
Unknown
Doppler factor
Unknown
Orbital elements
Apogee altitude
565.991 km
Perigee altitude
546.49 km
Semi-major axis
6,934.378 km
Eccentricity
0.00141
Inclination
98.8394°
RAAN
155.5755°
Arg. of periapsis
240.3172°
True anomaly
119.80479°
Mean anomaly
119.6649°
Eccentric anomaly
119.73486°
Mean motion
3.75865 °/min
Orbital period
95.78 mins
BSTAR
0.0073882
Loading maneuver chart data...
Computing Atmospheric mass density...

Documentation

Showing up to 5 results
|